Time,TemperatureF,DewpointF,PressureIn,WindDirection,WindDirectionDegrees,WindSpeedMPH,WindSpeedGustMPH,Humidity,HourlyPrecipIn,Conditions,Clouds,dailyrainin,SoftwareType,DateUTC
2013-06-09 00:00:00,58.7,46.5,29.88,North,0,0.0,0.0,64,0.00,,,0.00,Wunderground v.1.12,2013-06-09 06:00:00,
2013-06-09 00:10:00,59.1,46.5,29.88,WNW,295,0.0,0.0,63,0.00,,,0.00,Wunderground v.1.12,2013-06-09 06:10:00,
2013-06-09 00:15:00,59.3,46.3,29.88,North,0,0.0,0.0,62,0.00,,,0.00,Wunderground v.1.12,2013-06-09 06:15:00,
2013-06-09 00:20:00,59.4,46.4,29.88,WNW,297,1.0,1.0,62,0.00,,,0.00,Wunderground v.1.12,2013-06-09 06:20:00,
2013-06-09 00:30:00,59.3,46.3,29.88,North,0,0.0,0.0,62,0.00,,,0.00,Wunderground v.1.12,2013-06-09 06:30:00,
2013-06-09 00:35:00,59.2,46.2,29.88,North,0,0.0,0.0,62,0.00,,,0.00,Wunderground v.1.12,2013-06-09 06:35:00,
2013-06-09 00:40:00,59.1,46.5,29.89,North,0,0.0,0.0,63,0.00,,,0.00,Wunderground v.1.12,2013-06-09 06:40:00,
2013-06-09 00:50:00,58.7,45.7,29.88,North,0,0.0,0.0,62,0.00,,,0.00,Wunderground v.1.12,2013-06-09 06:50:00,
2013-06-09 00:55:00,58.8,45.8,29.89,North,359,0.0,0.0,62,0.00,,,0.00,Wunderground v.1.12,2013-06-09 06:55:00,
2013-06-09 01:05:00,58.5,45.5,29.89,North,0,0.0,0.0,62,0.00,,,0.00,Wunderground v.1.12,2013-06-09 07:05:00,
2013-06-09 01:10:00,58.5,45.9,29.89,North,0,0.0,0.0,63,0.00,,,0.00,Wunderground v.1.12,2013-06-09 07:10:00,
2013-06-09 01:15:00,58.2,46.5,29.89,North,0,0.0,0.0,65,0.00,,,0.00,Wunderground v.1.12,2013-06-09 07:15:00,
2013-06-09 01:20:00,57.9,46.6,29.89,North,0,0.0,0.0,66,0.00,,,0.00,Wunderground v.1.12,2013-06-09 07:20:00,
2013-06-09 01:30:00,57.1,47.0,29.89,North,0,0.0,0.0,69,0.00,,,0.00,Wunderground v.1.12,2013-06-09 07:30:00,
2013-06-09 01:35:00,56.7,47.0,29.89,North,0,0.0,0.0,70,0.00,,,0.00,Wunderground v.1.12,2013-06-09 07:35:00,
2013-06-09 01:40:00,56.3,47.0,29.89,North,0,0.0,0.0,71,0.00,,,0.00,Wunderground v.1.12,2013-06-09 07:40:00,
2013-06-09 01:45:00,56.0,47.1,29.89,North,0,0.0,0.0,72,0.00,,,0.00,Wunderground v.1.12,2013-06-09 07:45:00,
2013-06-09 01:50:00,55.7,47.2,29.90,North,0,0.0,0.0,73,0.00,,,0.00,Wunderground v.1.12,2013-06-09 07:50:00,
2013-06-09 01:55:00,55.3,46.8,29.90,North,0,0.0,0.0,73,0.00,,,0.00,Wunderground v.1.12,2013-06-09 07:55:00,
2013-06-09 02:05:00,54.7,46.6,29.89,North,0,0.0,0.0,74,0.00,,,0.00,Wunderground v.1.12,2013-06-09 08:05:00,
2013-06-09 02:10:00,54.5,46.7,29.89,North,0,0.0,0.0,75,0.00,,,0.00,Wunderground v.1.12,2013-06-09 08:10:00,
2013-06-09 02:15:00,54.2,46.4,29.89,North,0,0.0,0.0,75,0.00,,,0.00,Wunderground v.1.12,2013-06-09 08:15:00,
2013-06-09 02:20:00,54.2,46.4,29.90,North,0,0.0,0.0,75,0.00,,,0.00,Wunderground v.1.12,2013-06-09 08:20:00,
2013-06-09 02:30:00,53.5,46.5,29.89,North,0,0.0,0.0,77,0.00,,,0.00,Wunderground v.1.12,2013-06-09 08:30:00,
2013-06-09 02:35:00,53.2,46.5,29.89,North,0,0.0,0.0,78,0.00,,,0.00,Wunderground v.1.12,2013-06-09 08:35:00,
2013-06-09 02:40:00,53.0,46.3,29.89,North,0,0.0,0.0,78,0.00,,,0.00,Wunderground v.1.12,2013-06-09 08:40:00,
2013-06-09 02:45:00,52.7,46.4,29.89,North,0,0.0,0.0,79,0.00,,,0.00,Wunderground v.1.12,2013-06-09 08:45:00,
2013-06-09 02:55:00,52.2,45.9,29.89,North,0,0.0,0.0,79,0.00,,,0.00,Wunderground v.1.12,2013-06-09 08:55:00,
2013-06-09 03:00:00,52.1,46.1,29.89,North,0,0.0,0.0,80,0.00,,,0.00,Wunderground v.1.12,2013-06-09 09:00:00,
2013-06-09 03:10:00,51.5,46.2,29.89,ENE,69,0.0,0.0,82,0.00,,,0.00,Wunderground v.1.12,2013-06-09 09:10:00,
2013-06-09 03:15:00,51.3,46.0,29.88,ENE,69,0.0,0.0,82,0.00,,,0.00,Wunderground v.1.12,2013-06-09 09:15:00,
2013-06-09 03:20:00,51.3,46.3,29.88,NE,45,0.0,0.0,83,0.00,,,0.00,Wunderground v.1.12,2013-06-09 09:20:00,
2013-06-09 03:25:00,51.2,46.2,29.88,NE,45,0.0,0.0,83,0.00,,,0.00,Wunderground v.1.12,2013-06-09 09:25:00,
2013-06-09 03:30:00,51.1,46.1,29.88,NE,50,0.0,0.0,83,0.00,,,0.00,Wunderground v.1.12,2013-06-09 09:30:00,
2013-06-09 03:40:00,51.0,46.0,29.88,NE,49,0.0,0.0,83,0.00,,,0.00,Wunderground v.1.12,2013-06-09 09:40:00,
2013-06-09 03:45:00,50.9,45.9,29.88,NE,49,0.0,0.0,83,0.00,,,0.00,Wunderground v.1.12,2013-06-09 09:45:00,
2013-06-09 03:50:00,50.9,45.9,29.88,NE,49,0.0,0.0,83,0.00,,,0.00,Wunderground v.1.12,2013-06-09 09:50:00,
2013-06-09 03:55:00,50.8,45.8,29.88,NE,49,0.0,0.0,83,0.00,,,0.00,Wunderground v.1.12,2013-06-09 09:55:00,
2013-06-09 04:00:00,50.8,46.1,29.88,NE,49,0.0,0.0,84,0.00,,,0.00,Wunderground v.1.12,2013-06-09 10:00:00,
2013-06-09 04:05:00,50.7,45.7,29.88,NE,49,0.0,0.0,83,0.00,,,0.00,Wunderground v.1.12,2013-06-09 10:05:00,
2013-06-09 04:10:00,50.3,46.0,29.88,NE,49,0.0,0.0,85,0.00,,,0.00,Wunderground v.1.12,2013-06-09 10:10:00,
2013-06-09 04:15:00,50.0,46.0,29.88,NE,50,0.0,0.0,86,0.00,,,0.00,Wunderground v.1.12,2013-06-09 10:15:00,
2013-06-09 04:20:00,50.1,45.8,29.88,NE,50,0.0,0.0,85,0.00,,,0.00,Wunderground v.1.12,2013-06-09 10:20:00,
2013-06-09 04:25:00,50.2,45.9,29.88,NE,50,0.0,0.0,85,0.00,,,0.00,Wunderground v.1.12,2013-06-09 10:25:00,
2013-06-09 04:30:00,50.2,46.2,29.88,NE,50,0.0,0.0,86,0.00,,,0.00,Wunderground v.1.12,2013-06-09 10:30:00,
2013-06-09 04:35:00,49.8,46.1,29.88,NE,50,0.0,0.0,87,0.00,,,0.00,Wunderground v.1.12,2013-06-09 10:35:00,
2013-06-09 04:45:00,49.5,45.8,29.87,NE,49,0.0,0.0,87,0.00,,,0.00,Wunderground v.1.12,2013-06-09 10:45:00,
2013-06-09 04:50:00,49.4,45.7,29.87,NE,49,0.0,0.0,87,0.00,,,0.00,Wunderground v.1.12,2013-06-09 10:50:00,
2013-06-09 04:55:00,49.3,45.9,29.87,NE,45,0.0,0.0,88,0.00,,,0.00,Wunderground v.1.12,2013-06-09 10:55:00,
2013-06-09 05:00:00,49.2,45.8,29.87,NE,46,0.0,0.0,88,0.00,,,0.00,Wunderground v.1.12,2013-06-09 11:00:00,
2013-06-09 05:05:00,49.1,45.4,29.87,NE,45,0.0,0.0,87,0.00,,,0.00,Wunderground v.1.12,2013-06-09 11:05:00,
2013-06-09 05:15:00,49.0,45.6,29.87,NE,51,0.0,0.0,88,0.00,,,0.00,Wunderground v.1.12,2013-06-09 11:15:00,
2013-06-09 05:20:00,48.9,45.5,29.87,NE,47,0.0,0.0,88,0.00,,,0.00,Wunderground v.1.12,2013-06-09 11:20:00,
2013-06-09 05:25:00,48.7,45.6,29.87,NE,47,0.0,0.0,89,0.00,,,0.00,Wunderground v.1.12,2013-06-09 11:25:00,
2013-06-09 05:30:00,48.6,45.5,29.87,ENE,61,0.0,0.0,89,0.00,,,0.00,Wunderground v.1.12,2013-06-09 11:30:00,
2013-06-09 05:35:00,48.4,45.3,29.86,ENE,57,0.0,0.0,89,0.00,,,0.00,Wunderground v.1.12,2013-06-09 11:35:00,
2013-06-09 05:40:00,48.4,45.3,29.86,ENE,57,0.0,0.0,89,0.00,,,0.00,Wunderground v.1.12,2013-06-09 11:40:00,
2013-06-09 05:45:00,48.3,45.2,29.86,ENE,57,0.0,0.0,89,0.00,,,0.00,Wunderground v.1.12,2013-06-09 11:45:00,
2013-06-09 05:50:00,48.2,45.1,29.86,ENE,57,0.0,0.0,89,0.00,,,0.00,Wunderground v.1.12,2013-06-09 11:50:00,
2013-06-09 06:00:00,48.2,45.1,29.86,ENE,57,0.0,0.0,89,0.00,,,0.00,Wunderground v.1.12,2013-06-09 12:00:00,
2013-06-09 06:05:00,48.3,45.2,29.86,NE,54,0.0,0.0,89,0.00,,,0.00,Wunderground v.1.12,2013-06-09 12:05:00,
2013-06-09 06:10:00,48.2,45.1,29.86,NE,56,0.0,0.0,89,0.00,,,0.00,Wunderground v.1.12,2013-06-09 12:10:00,
2013-06-09 06:20:00,48.2,45.4,29.86,NE,56,0.0,0.0,90,0.00,,,0.00,Wunderground v.1.12,2013-06-09 12:20:00,
2013-06-09 06:25:00,48.1,45.3,29.86,NE,56,0.0,0.0,90,0.00,,,0.00,Wunderground v.1.12,2013-06-09 12:25:00,
2013-06-09 06:30:00,48.2,45.1,29.86,NE,56,0.0,0.0,89,0.00,,,0.00,Wunderground v.1.12,2013-06-09 12:30:00,
2013-06-09 06:35:00,48.3,45.5,29.86,NE,56,0.0,0.0,90,0.00,,,0.00,Wunderground v.1.12,2013-06-09 12:35:00,
2013-06-09 06:40:00,48.3,45.5,29.86,NE,56,0.0,0.0,90,0.00,,,0.00,Wunderground v.1.12,2013-06-09 12:40:00,
2013-06-09 06:45:00,48.4,45.6,29.86,NE,56,0.0,0.0,90,0.00,,,0.00,Wunderground v.1.12,2013-06-09 12:45:00,
2013-06-09 06:50:00,48.4,45.6,29.86,NE,56,0.0,0.0,90,0.00,,,0.00,Wunderground v.1.12,2013-06-09 12:50:00,
2013-06-09 06:55:00,48.4,45.6,29.86,NE,56,0.0,0.0,90,0.00,,,0.00,Wunderground v.1.12,2013-06-09 12:55:00,
2013-06-09 07:00:00,48.5,45.7,29.86,NE,56,0.0,0.0,90,0.00,,,0.00,Wunderground v.1.12,2013-06-09 13:00:00,
2013-06-09 07:05:00,48.6,46.1,29.86,NE,56,0.0,0.0,91,0.00,,,0.00,Wunderground v.1.12,2013-06-09 13:05:00,
2013-06-09 07:10:00,48.7,46.2,29.86,NE,56,0.0,0.0,91,0.00,,,0.00,Wunderground v.1.12,2013-06-09 13:10:00,
2013-06-09 07:20:00,49.1,46.6,29.85,NE,56,0.0,0.0,91,0.00,,,0.00,Wunderground v.1.12,2013-06-09 13:20:00,
2013-06-09 07:25:00,49.4,46.9,29.86,NE,56,0.0,0.0,91,0.00,,,0.00,Wunderground v.1.12,2013-06-09 13:25:00,
2013-06-09 07:30:00,49.5,47.3,29.85,NE,56,0.0,0.0,92,0.00,,,0.00,Wunderground v.1.12,2013-06-09 13:30:00,
2013-06-09 07:35:00,49.6,47.7,29.85,NE,55,0.0,0.0,93,0.00,,,0.00,Wunderground v.1.12,2013-06-09 13:35:00,
2013-06-09 07:40:00,50.0,48.1,29.85,NE,55,0.0,0.0,93,0.00,,,0.00,Wunderground v.1.12,2013-06-09 13:40:00,
2013-06-09 07:45:00,50.5,48.0,29.85,NE,55,0.0,0.0,91,0.00,,,0.00,Wunderground v.1.12,2013-06-09 13:45:00,
2013-06-09 07:55:00,51.4,48.3,29.84,NE,55,0.0,0.0,89,0.00,,,0.00,Wunderground v.1.12,2013-06-09 13:55:00,
2013-06-09 08:00:00,52.0,47.9,29.84,NE,55,0.0,0.0,86,0.00,,,0.00,Wunderground v.1.12,2013-06-09 14:00:00,
2013-06-09 08:05:00,52.5,48.4,29.84,NE,55,0.0,0.0,86,0.00,,,0.00,Wunderground v.1.12,2013-06-09 14:05:00,
2013-06-09 08:10:00,52.9,48.8,29.84,NE,55,0.0,0.0,86,0.00,,,0.00,Wunderground v.1.12,2013-06-09 14:10:00,
2013-06-09 08:15:00,53.4,49.3,29.84,NE,56,0.0,0.0,86,0.00,,,0.00,Wunderground v.1.12,2013-06-09 14:15:00,
2013-06-09 08:25:00,54.4,49.0,29.84,North,0,0.0,0.0,82,0.00,,,0.00,Wunderground v.1.12,2013-06-09 14:25:00,
2013-06-09 08:30:00,55.1,49.7,29.84,North,0,0.0,0.0,82,0.00,,,0.00,Wunderground v.1.12,2013-06-09 14:30:00,
2013-06-09 08:35:00,56.0,49.6,29.83,WNW,284,3.0,3.0,79,0.00,,,0.00,Wunderground v.1.12,2013-06-09 14:35:00,
2013-06-09 08:40:00,57.0,49.5,29.83,North,0,2.0,2.0,76,0.00,,,0.00,Wunderground v.1.12,2013-06-09 14:40:00,
2013-06-09 08:45:00,58.0,50.1,29.83,North,0,0.0,0.0,75,0.00,,,0.00,Wunderground v.1.12,2013-06-09 14:45:00,
2013-06-09 08:50:00,58.6,51.1,29.83,North,0,0.0,0.0,76,0.00,,,0.00,Wunderground v.1.12,2013-06-09 14:50:00,
2013-06-09 08:55:00,59.2,50.9,29.82,North,0,3.0,3.0,74,0.00,,,0.00,Wunderground v.1.12,2013-06-09 14:55:00,
2013-06-09 09:00:00,60.2,50.0,29.82,NNW,335,1.0,1.0,69,0.00,,,0.00,Wunderground v.1.12,2013-06-09 15:00:00,
2013-06-09 09:05:00,61.0,50.4,29.82,North,0,3.0,3.0,68,0.00,,,0.00,Wunderground v.1.12,2013-06-09 15:05:00,
2013-06-09 09:10:00,61.7,50.2,29.82,North,359,4.0,4.0,66,0.00,,,0.00,Wunderground v.1.12,2013-06-09 15:10:00,
2013-06-09 09:15:00,62.8,51.3,29.82,North,0,6.0,6.0,66,0.00,,,0.00,Wunderground v.1.12,2013-06-09 15:15:00,
2013-06-09 09:20:00,63.7,50.4,29.82,NW,319,0.0,0.0,62,0.00,,,0.00,Wunderground v.1.12,2013-06-09 15:20:00,
2013-06-09 09:30:00,65.5,51.2,29.81,NE,54,0.0,0.0,60,0.00,,,0.00,Wunderground v.1.12,2013-06-09 15:30:00,
2013-06-09 09:35:00,66.9,50.7,29.81,North,0,0.0,0.0,56,0.00,,,0.00,Wunderground v.1.12,2013-06-09 15:35:00,
2013-06-09 09:40:00,68.0,50.7,29.81,North,3,10.0,10.0,54,0.00,,,0.00,Wunderground v.1.12,2013-06-09 15:40:00,
2013-06-09 09:45:00,69.1,51.2,29.80,North,0,0.0,0.0,53,0.00,,,0.00,Wunderground v.1.12,2013-06-09 15:45:00,
2013-06-09 09:50:00,70.1,50.0,29.80,North,0,2.0,2.0,49,0.00,,,0.00,Wunderground v.1.12,2013-06-09 15:50:00,
2013-06-09 09:55:00,70.8,49.0,29.80,East,95,7.0,7.0,46,0.00,,,0.00,Wunderground v.1.12,2013-06-09 15:55:00,
2013-06-09 10:00:00,71.4,47.7,29.80,North,357,7.0,7.0,43,0.00,,,0.00,Wunderground v.1.12,2013-06-09 16:00:00,
2013-06-09 10:10:00,72.6,48.2,29.80,SW,232,0.0,0.0,42,0.00,,,0.00,Wunderground v.1.12,2013-06-09 16:10:00,
2013-06-09 10:15:00,73.3,48.2,29.79,North,0,0.0,0.0,41,0.00,,,0.00,Wunderground v.1.12,2013-06-09 16:15:00,
2013-06-09 10:20:00,73.8,48.6,29.80,North,1,1.0,1.0,41,0.00,,,0.00,Wunderground v.1.12,2013-06-09 16:20:00,
2013-06-09 10:30:00,75.0,48.4,29.79,North,0,0.0,0.0,39,0.00,,,0.00,Wunderground v.1.12,2013-06-09 16:30:00,
2013-06-09 10:35:00,75.8,50.4,29.79,NW,304,0.0,0.0,41,0.00,,,0.00,Wunderground v.1.12,2013-06-09 16:35:00,
2013-06-09 10:40:00,76.6,49.8,29.79,SW,232,0.0,0.0,39,0.00,,,0.00,Wunderground v.1.12,2013-06-09 16:40:00,
2013-06-09 10:45:00,77.4,51.2,29.79,SW,217,0.0,0.0,40,0.00,,,0.00,Wunderground v.1.12,2013-06-09 16:45:00,
2013-06-09 10:50:00,77.9,49.5,29.78,North,356,0.0,0.0,37,0.00,,,0.00,Wunderground v.1.12,2013-06-09 16:50:00,
2013-06-09 10:55:00,78.0,48.1,29.78,WNW,286,0.0,0.0,35,0.00,,,0.00,Wunderground v.1.12,2013-06-09 16:55:00,
2013-06-09 11:05:00,78.4,48.5,29.78,SSW,209,0.0,0.0,35,0.00,,,0.00,Wunderground v.1.12,2013-06-09 17:05:00,
2013-06-09 11:10:00,78.6,47.1,29.79,ENE,64,0.0,0.0,33,0.00,,,0.00,Wunderground v.1.12,2013-06-09 17:10:00,
2013-06-09 11:15:00,78.7,47.2,29.79,North,0,5.0,5.0,33,0.00,,,0.00,Wunderground v.1.12,2013-06-09 17:15:00,
2013-06-09 11:20:00,78.6,47.1,29.79,East,85,0.0,0.0,33,0.00,,,0.00,Wunderground v.1.12,2013-06-09 17:20:00,
2013-06-09 11:25:00,78.4,46.1,29.79,NNW,343,4.0,4.0,32,0.00,,,0.00,Wunderground v.1.12,2013-06-09 17:25:00,
2013-06-09 11:30:00,78.5,46.2,29.78,NNE,32,3.0,3.0,32,0.00,,,0.00,Wunderground v.1.12,2013-06-09 17:30:00,
2013-06-09 11:35:00,78.6,47.9,29.78,North,0,0.0,0.0,34,0.00,,,0.00,Wunderground v.1.12,2013-06-09 17:35:00,
2013-06-09 11:40:00,79.2,48.4,29.78,SW,227,1.0,1.0,34,0.00,,,0.00,Wunderground v.1.12,2013-06-09 17:40:00,
2013-06-09 11:45:00,79.5,49.4,29.78,North,0,4.0,4.0,35,0.00,,,0.00,Wunderground v.1.12,2013-06-09 17:45:00,
2013-06-09 11:50:00,79.8,48.1,29.78,SW,236,0.0,0.0,33,0.00,,,0.00,Wunderground v.1.12,2013-06-09 17:50:00,
2013-06-09 11:55:00,80.0,46.6,29.78,North,2,0.0,0.0,31,0.00,,,0.00,Wunderground v.1.12,2013-06-09 17:55:00,
2013-06-09 12:05:00,79.8,45.6,29.78,West,270,1.0,1.0,30,0.00,,,0.00,Wunderground v.1.12,2013-06-09 18:05:00,
2013-06-09 12:10:00,79.8,46.5,29.78,NE,50,0.0,0.0,31,0.00,,,0.00,Wunderground v.1.12,2013-06-09 18:10:00,
2013-06-09 12:15:00,80.4,47.0,29.78,North,0,0.0,0.0,31,0.00,,,0.00,Wunderground v.1.12,2013-06-09 18:15:00,
2013-06-09 12:20:00,80.1,45.9,29.78,NNE,18,0.0,0.0,30,0.00,,,0.00,Wunderground v.1.12,2013-06-09 18:20:00,
2013-06-09 12:25:00,79.9,48.2,29.78,North,0,4.0,4.0,33,0.00,,,0.00,Wunderground v.1.12,2013-06-09 18:25:00,
2013-06-09 12:30:00,80.0,47.5,29.78,North,0,6.0,6.0,32,0.00,,,0.00,Wunderground v.1.12,2013-06-09 18:30:00,
2013-06-09 12:35:00,80.0,47.5,29.78,North,0,0.0,0.0,32,0.00,,,0.00,Wunderground v.1.12,2013-06-09 18:35:00,
2013-06-09 12:40:00,79.4,46.1,29.78,South,182,0.0,0.0,31,0.00,,,0.00,Wunderground v.1.12,2013-06-09 18:40:00,
2013-06-09 12:45:00,79.5,47.1,29.78,North,0,0.0,0.0,32,0.00,,,0.00,Wunderground v.1.12,2013-06-09 18:45:00,
2013-06-09 12:50:00,80.0,46.6,29.78,North,0,0.0,0.0,31,0.00,,,0.00,Wunderground v.1.12,2013-06-09 18:50:00,
2013-06-09 12:55:00,79.8,48.1,29.78,West,260,0.0,0.0,33,0.00,,,0.00,Wunderground v.1.12,2013-06-09 18:55:00,
2013-06-09 13:00:00,80.0,46.6,29.78,North,356,16.0,16.0,31,0.00,,,0.00,Wunderground v.1.12,2013-06-09 19:00:00,
2013-06-09 13:10:00,80.1,45.9,29.78,North,358,0.0,0.0,30,0.00,,,0.00,Wunderground v.1.12,2013-06-09 19:10:00,
2013-06-09 13:15:00,80.1,48.4,29.78,NW,318,0.0,0.0,33,0.00,,,0.00,Wunderground v.1.12,2013-06-09 19:15:00,
2013-06-09 13:20:00,80.1,48.4,29.78,North,0,3.0,3.0,33,0.00,,,0.00,Wunderground v.1.12,2013-06-09 19:20:00,
2013-06-09 13:25:00,80.1,45.0,29.78,North,0,9.0,9.0,29,0.00,,,0.00,Wunderground v.1.12,2013-06-09 19:25:00,
2013-06-09 13:30:00,79.8,46.5,29.78,WSW,250,0.0,0.0,31,0.00,,,0.00,Wunderground v.1.12,2013-06-09 19:30:00,
2013-06-09 13:40:00,80.4,46.1,29.78,ESE,114,0.0,0.0,30,0.00,,,0.00,Wunderground v.1.12,2013-06-09 19:40:00,
2013-06-09 13:45:00,80.3,48.6,29.79,North,0,0.0,0.0,33,0.00,,,0.00,Wunderground v.1.12,2013-06-09 19:45:00,
2013-06-09 13:55:00,80.4,47.8,29.78,WSW,257,0.0,0.0,32,0.00,,,0.00,Wunderground v.1.12,2013-06-09 19:55:00,
2013-06-09 14:00:00,80.3,48.6,29.78,North,0,4.0,4.0,33,0.00,,,0.00,Wunderground v.1.12,2013-06-09 20:00:00,
2013-06-09 14:05:00,80.0,48.3,29.78,SW,224,0.0,0.0,33,0.00,,,0.00,Wunderground v.1.12,2013-06-09 20:05:00,
2013-06-09 14:15:00,79.6,47.1,29.78,North,355,5.0,5.0,32,0.00,,,0.00,Wunderground v.1.12,2013-06-09 20:15:00,
2013-06-09 14:20:00,79.5,48.7,29.78,North,352,8.0,8.0,34,0.00,,,0.00,Wunderground v.1.12,2013-06-09 20:20:00,
2013-06-09 14:25:00,79.2,44.2,29.78,North,0,0.0,0.0,29,0.00,,,0.00,Wunderground v.1.12,2013-06-09 20:25:00,
2013-06-09 14:30:00,79.2,44.2,29.78,North,357,10.0,10.0,29,0.00,,,0.00,Wunderground v.1.12,2013-06-09 20:30:00,
2013-06-09 14:35:00,78.6,44.6,29.78,North,4,9.0,9.0,30,0.00,,,0.00,Wunderground v.1.12,2013-06-09 20:35:00,
2013-06-09 14:45:00,78.5,47.0,29.78,NNW,347,0.0,0.0,33,0.00,,,0.00,Wunderground v.1.12,2013-06-09 20:45:00,
2013-06-09 14:50:00,78.3,45.2,29.78,North,359,7.0,7.0,31,0.00,,,0.00,Wunderground v.1.12,2013-06-09 20:50:00,
2013-06-09 14:55:00,78.2,47.5,29.78,WNW,283,0.0,0.0,34,0.00,,,0.00,Wunderground v.1.12,2013-06-09 20:55:00,
2013-06-09 15:00:00,77.8,47.2,29.78,SW,224,0.0,0.0,34,0.00,,,0.00,Wunderground v.1.12,2013-06-09 21:00:00,
2013-06-09 15:05:00,77.4,43.5,29.77,South,177,0.0,0.0,30,0.00,,,0.00,Wunderground v.1.12,2013-06-09 21:05:00,
2013-06-09 15:15:00,77.2,48.2,29.77,North,0,4.0,4.0,36,0.00,,,0.00,Wunderground v.1.12,2013-06-09 21:15:00,
2013-06-09 15:20:00,77.2,45.9,29.78,NNW,340,2.0,2.0,33,0.00,,,0.00,Wunderground v.1.12,2013-06-09 21:20:00,
2013-06-09 15:25:00,77.0,45.7,29.78,NW,319,1.0,1.0,33,0.00,,,0.00,Wunderground v.1.12,2013-06-09 21:25:00,
2013-06-09 15:35:00,76.3,45.1,29.78,SW,216,0.0,0.0,33,0.00,,,0.00,Wunderground v.1.12,2013-06-09 21:35:00,
2013-06-09 15:40:00,76.1,46.5,29.77,North,355,0.0,0.0,35,0.00,,,0.00,Wunderground v.1.12,2013-06-09 21:40:00,
2013-06-09 15:45:00,75.8,46.2,29.78,North,11,0.0,0.0,35,0.00,,,0.00,Wunderground v.1.12,2013-06-09 21:45:00,
2013-06-09 15:50:00,75.8,48.4,29.77,WNW,302,0.0,0.0,38,0.00,,,0.00,Wunderground v.1.12,2013-06-09 21:50:00,
2013-06-09 15:55:00,75.8,48.4,29.78,North,0,0.0,0.0,38,0.00,,,0.00,Wunderground v.1.12,2013-06-09 21:55:00,
2013-06-09 16:00:00,75.5,45.9,29.78,ESE,121,10.0,10.0,35,0.00,,,0.00,Wunderground v.1.12,2013-06-09 22:00:00,
2013-06-09 16:05:00,74.6,45.1,29.77,North,0,0.0,0.0,35,0.00,,,0.00,Wunderground v.1.12,2013-06-09 22:05:00,
2013-06-09 16:10:00,74.6,45.9,29.77,North,2,0.0,0.0,36,0.00,,,0.00,Wunderground v.1.12,2013-06-09 22:10:00,
2013-06-09 16:20:00,74.1,43.9,29.78,North,0,0.0,0.0,34,0.00,,,0.00,Wunderground v.1.12,2013-06-09 22:20:00,
2013-06-09 16:25:00,73.6,44.2,29.78,SE,131,1.0,1.0,35,0.00,,,0.00,Wunderground v.1.12,2013-06-09 22:25:00,
2013-06-09 16:30:00,73.3,44.0,29.78,North,358,1.0,1.0,35,0.00,,,0.00,Wunderground v.1.12,2013-06-09 22:30:00,
2013-06-09 16:35:00,73.3,44.7,29.78,ENE,63,6.0,6.0,36,0.00,,,0.00,Wunderground v.1.12,2013-06-09 22:35:00,
2013-06-09 16:40:00,73.3,46.2,29.78,North,0,0.0,0.0,38,0.00,,,0.00,Wunderground v.1.12,2013-06-09 22:40:00,
2013-06-09 16:45:00,73.2,44.6,29.77,North,0,0.0,0.0,36,0.00,,,0.00,Wunderground v.1.12,2013-06-09 22:45:00,
2013-06-09 16:50:00,72.9,45.1,29.78,North,0,0.0,0.0,37,0.00,,,0.00,Wunderground v.1.12,2013-06-09 22:50:00,
2013-06-09 16:55:00,72.6,44.8,29.77,North,0,0.0,0.0,37,0.00,,,0.00,Wunderground v.1.12,2013-06-09 22:55:00,
2013-06-09 17:00:00,72.6,46.9,29.77,ESE,102,0.0,0.0,40,0.00,,,0.00,Wunderground v.1.12,2013-06-09 23:00:00,
2013-06-09 17:05:00,72.4,44.6,29.77,NE,37,0.0,0.0,37,0.00,,,0.00,Wunderground v.1.12,2013-06-09 23:05:00,
2013-06-09 17:10:00,72.3,44.6,29.77,North,0,0.0,0.0,37,0.00,,,0.00,Wunderground v.1.12,2013-06-09 23:10:00,
2013-06-09 17:20:00,72.2,43.8,29.77,WSW,252,0.0,0.0,36,0.00,,,0.00,Wunderground v.1.12,2013-06-09 23:20:00,
2013-06-09 17:25:00,72.0,45.0,29.77,SW,222,1.0,1.0,38,0.00,,,0.00,Wunderground v.1.12,2013-06-09 23:25:00,
2013-06-09 17:30:00,72.0,45.0,29.77,NNW,345,6.0,6.0,38,0.00,,,0.00,Wunderground v.1.12,2013-06-09 23:30:00,
2013-06-09 17:40:00,71.8,45.5,29.78,North,0,0.0,0.0,39,0.00,,,0.00,Wunderground v.1.12,2013-06-09 23:40:00,
2013-06-09 17:45:00,71.7,45.4,29.78,North,0,0.0,0.0,39,0.00,,,0.00,Wunderground v.1.12,2013-06-09 23:45:00,
2013-06-09 17:55:00,71.3,44.4,29.78,North,0,0.0,0.0,38,0.00,,,0.00,Wunderground v.1.12,2013-06-09 23:55:00,
2013-06-09 18:00:00,71.2,44.3,29.78,SSW,198,0.0,0.0,38,0.00,,,0.00,Wunderground v.1.12,2013-06-10 00:00:00,
2013-06-09 18:05:00,71.1,44.2,29.78,NE,44,0.0,0.0,38,0.00,,,0.00,Wunderground v.1.12,2013-06-10 00:05:00,
2013-06-09 18:15:00,71.0,44.1,29.78,North,0,0.0,0.0,38,0.00,,,0.00,Wunderground v.1.12,2013-06-10 00:15:00,
2013-06-09 18:25:00,70.9,44.0,29.78,West,277,0.0,0.0,38,0.00,,,0.00,Wunderground v.1.12,2013-06-10 00:25:00,
2013-06-09 18:30:00,70.7,43.8,29.78,North,0,0.0,0.0,38,0.00,,,0.00,Wunderground v.1.12,2013-06-10 00:30:00,
2013-06-09 18:35:00,70.5,40.0,29.78,WSW,249,0.0,0.0,33,0.00,,,0.00,Wunderground v.1.12,2013-06-10 00:35:00,
2013-06-09 18:45:00,70.2,42.0,29.78,North,0,0.0,0.0,36,0.00,,,0.00,Wunderground v.1.12,2013-06-10 00:45:00,
2013-06-09 18:55:00,69.8,43.0,29.78,SSW,193,0.0,0.0,38,0.00,,,0.00,Wunderground v.1.12,2013-06-10 00:55:00,
2013-06-09 19:00:00,69.8,43.7,29.78,North,0,0.0,0.0,39,0.00,,,0.00,Wunderground v.1.12,2013-06-10 01:00:00,
2013-06-09 19:05:00,69.5,42.1,29.78,East,100,0.0,0.0,37,0.00,,,0.00,Wunderground v.1.12,2013-06-10 01:05:00,
2013-06-09 19:15:00,69.1,41.0,29.78,North,0,0.0,0.0,36,0.00,,,0.00,Wunderground v.1.12,2013-06-10 01:15:00,
2013-06-09 19:20:00,68.9,42.2,29.78,North,0,0.0,0.0,38,0.00,,,0.00,Wunderground v.1.12,2013-06-10 01:20:00,
2013-06-09 19:25:00,68.7,42.1,29.78,North,0,0.0,0.0,38,0.00,,,0.00,Wunderground v.1.12,2013-06-10 01:25:00,
2013-06-09 19:35:00,68.3,41.7,29.79,North,358,1.0,1.0,38,0.00,,,0.00,Wunderground v.1.12,2013-06-10 01:35:00,
2013-06-09 19:40:00,68.0,42.1,29.79,North,0,0.0,0.0,39,0.00,,,0.00,Wunderground v.1.12,2013-06-10 01:40:00,
2013-06-09 19:45:00,67.8,41.9,29.79,North,0,0.0,0.0,39,0.00,,,0.00,Wunderground v.1.12,2013-06-10 01:45:00,
2013-06-09 19:50:00,67.6,43.7,29.79,North,0,0.0,0.0,42,0.00,,,0.00,Wunderground v.1.12,2013-06-10 01:50:00,
2013-06-09 20:00:00,67.0,42.5,29.79,North,0,0.0,0.0,41,0.00,,,0.00,Wunderground v.1.12,2013-06-10 02:00:00,
2013-06-09 20:05:00,66.8,43.6,29.79,North,357,1.0,1.0,43,0.00,,,0.00,Wunderground v.1.12,2013-06-10 02:05:00,
2013-06-09 20:10:00,66.5,43.9,29.79,North,0,0.0,0.0,44,0.00,,,0.00,Wunderground v.1.12,2013-06-10 02:10:00,
2013-06-09 20:15:00,66.4,43.2,29.79,North,0,0.0,0.0,43,0.00,,,0.00,Wunderground v.1.12,2013-06-10 02:15:00,
2013-06-09 20:25:00,65.8,42.1,29.79,North,0,0.0,0.0,42,0.00,,,0.00,Wunderground v.1.12,2013-06-10 02:25:00,
2013-06-09 20:30:00,65.7,42.6,29.79,NE,47,0.0,0.0,43,0.00,,,0.00,Wunderground v.1.12,2013-06-10 02:30:00,
2013-06-09 20:35:00,65.5,43.0,29.79,NE,47,0.0,0.0,44,0.00,,,0.00,Wunderground v.1.12,2013-06-10 02:35:00,
2013-06-09 20:40:00,65.0,43.7,29.79,North,0,0.0,0.0,46,0.00,,,0.00,Wunderground v.1.12,2013-06-10 02:40:00,
2013-06-09 20:50:00,64.7,42.3,29.80,North,0,0.0,0.0,44,0.00,,,0.00,Wunderground v.1.12,2013-06-10 02:50:00,
2013-06-09 21:00:00,64.3,43.1,29.80,North,0,0.0,0.0,46,0.00,,,0.00,Wunderground v.1.12,2013-06-10 03:00:00,
2013-06-09 21:05:00,64.0,42.8,29.80,North,0,0.0,0.0,46,0.00,,,0.00,Wunderground v.1.12,2013-06-10 03:05:00,
2013-06-09 21:10:00,63.6,43.0,29.80,WSW,257,0.0,0.0,47,0.00,,,0.00,Wunderground v.1.12,2013-06-10 03:10:00,
2013-06-09 21:20:00,62.9,45.0,29.80,North,0,0.0,0.0,52,0.00,,,0.00,Wunderground v.1.12,2013-06-10 03:20:00,
2013-06-09 21:30:00,61.7,46.3,29.80,North,0,0.0,0.0,57,0.00,,,0.00,Wunderground v.1.12,2013-06-10 03:30:00,
2013-06-09 21:35:00,61.1,46.7,29.80,North,0,0.0,0.0,59,0.00,,,0.00,Wunderground v.1.12,2013-06-10 03:35:00,
2013-06-09 21:45:00,60.2,46.3,29.80,North,0,0.0,0.0,60,0.00,,,0.00,Wunderground v.1.12,2013-06-10 03:45:00,
2013-06-09 21:50:00,59.6,46.6,29.81,North,0,0.0,0.0,62,0.00,,,0.00,Wunderground v.1.12,2013-06-10 03:50:00,
2013-06-09 21:55:00,59.1,46.1,29.81,North,0,0.0,0.0,62,0.00,,,0.00,Wunderground v.1.12,2013-06-10 03:55:00,
2013-06-09 22:05:00,60.1,47.9,29.81,N/A,-737280,0.0,0.0,64,0.00,,,0.00,Wunderground v.1.12,2013-06-10 04:05:00,
2013-06-09 22:15:00,57.3,46.0,29.81,North,0,0.0,0.0,66,0.00,,,0.00,Wunderground v.1.12,2013-06-10 04:15:00,
2013-06-09 22:20:00,57.0,46.1,29.81,North,0,0.0,0.0,67,0.00,,,0.00,Wunderground v.1.12,2013-06-10 04:20:00,
2013-06-09 22:25:00,56.7,45.9,29.82,North,0,0.0,0.0,67,0.00,,,0.00,Wunderground v.1.12,2013-06-10 04:25:00,
2013-06-09 22:35:00,56.2,45.4,29.82,North,0,0.0,0.0,67,0.00,,,0.00,Wunderground v.1.12,2013-06-10 04:35:00,
2013-06-09 22:40:00,55.9,44.7,29.82,North,0,0.0,0.0,66,0.00,,,0.00,Wunderground v.1.12,2013-06-10 04:40:00,
2013-06-09 22:50:00,55.3,45.3,29.83,NE,38,0.0,0.0,69,0.00,,,0.00,Wunderground v.1.12,2013-06-10 04:50:00,
2013-06-09 22:55:00,54.9,45.7,29.83,NE,50,0.0,0.0,71,0.00,,,0.00,Wunderground v.1.12,2013-06-10 04:55:00,
2013-06-09 23:00:00,54.4,45.6,29.83,NE,50,0.0,0.0,72,0.00,,,0.00,Wunderground v.1.12,2013-06-10 05:00:00,
2013-06-09 23:05:00,54.0,45.2,29.83,NE,47,0.0,0.0,72,0.00,,,0.00,Wunderground v.1.12,2013-06-10 05:05:00,
2013-06-09 23:15:00,53.2,44.8,29.83,NE,50,0.0,0.0,73,0.00,,,0.00,Wunderground v.1.12,2013-06-10 05:15:00,
2013-06-09 23:20:00,52.9,44.5,29.83,NE,50,0.0,0.0,73,0.00,,,0.00,Wunderground v.1.12,2013-06-10 05:20:00,
2013-06-09 23:25:00,52.5,44.4,29.83,NE,44,0.0,0.0,74,0.00,,,0.00,Wunderground v.1.12,2013-06-10 05:25:00,
2013-06-09 23:30:00,52.4,44.4,29.83,NE,44,0.0,0.0,74,0.00,,,0.00,Wunderground v.1.12,2013-06-10 05:30:00,
2013-06-09 23:40:00,52.0,43.6,29.83,NE,50,0.0,0.0,73,0.00,,,0.00,Wunderground v.1.12,2013-06-10 05:40:00,
2013-06-09 23:45:00,51.9,43.9,29.83,NE,50,0.0,0.0,74,0.00,,,0.00,Wunderground v.1.12,2013-06-10 05:45:00,
2013-06-09 23:50:00,51.9,43.9,29.83,NE,44,0.0,0.0,74,0.00,,,0.00,Wunderground v.1.12,2013-06-10 05:50:00,
2013-06-09 23:55:00,51.6,43.6,29.83,NE,41,0.0,0.0,74,0.00,,,0.00,Wunderground v.1.12,2013-06-10 05:55:00,